Zurück zum Katalog

OPS 8180

STP RADSAT

AktivMilitärPO
NORAD 6217·PAYLOAD·🇺🇸 United States

Gestartet Oct 2, 1972 von Vandenberg Space Force Base

Loading…

Nächste Überflüge (nächste 24 Stunden)

TLE

AktuellSource: Space-Track

Epoche: Sep 14, 2026, 09:35 UTC

1 06217U 72076B   26257.39976764  .00000417  00000-0  76932-4 0  9994
2 06217  98.6596 246.9478 0010349 104.5685 255.6668 14.71122009851905

Verfolge OPS 8180 in Echtzeit mit AllMySat

Download on the App Store